[[{"header":{"parameterUnit":"m.s-1","parameterCategory":1,"la1":30.2992,"la2":30.254,"lo1":-89.0895,"lo2":-89.0443,"dy":0.0025,"dx":0.0025,"nx":19,"ny":19,"refTime":"2026-03-09T09:00:00:Z","depth":0,"parameterNumber":2,"parameterNumberName":"U-component_of_WINDS"},"data":[0,0,0,-0.4345,-0.4344,-0.4268,-0.4268,-0.4186,-0.4186,0,0,0,0,0,0,0,0,0,0,0,-0.4375,-0.4375,-0.4345,-0.4344,-0.4269,-0.4268,-0.4186,-0.4186,0,0,0,0,0,0,0,0,0,0,0,-0.4376,-0.4375,-0.4375,-0.4344,-0.4269,-0.4268,-0.4187,-0.4239,0,0,0,0,0,0,0,0,0,0,-0.4309,-0.4344,-0.4375,-0.4375,-0.4343,-0.4269,-0.4268,-0.4241,-0.4235,-0.4226,0,-0.4219,0,-0.4201,-0.4181,-0.4181,0,0,0,-0.4338,-0.4349,-0.4321,-0.4375,-0.4343,-0.4269,-0.4301,-0.4238,-0.4231,-0.4219,-0.4218,-0.4215,-0.42,-0.4181,-0.418,-0.4143,-0.4143,0,0,-0.4343,-0.4366,-0.4326,-0.4318,-0.4329,-0.4303,-0.4299,-0.4234,-0.4235,-0.4218,-0.4212,-0.4199,-0.418,-0.418,-0.4143,-0.4143,0,0,0,-0.4358,-0.437,-0.4343,-0.4322,-0.4307,-0.4301,-0.4296,-0.4237,-0.4227,-0.4211,-0.4198,-0.418,-0.4179,-0.4143,-0.4143,-0.4169,0,0,0,-0.436,-0.4378,-0.4345,-0.4359,-0.4308,-0.4271,-0.4302,-0.4231,-0.4223,-0.4198,-0.418,-0.4178,-0.4143,-0.4143,-0.4168,-0.4178,0,0,0,-0.4378,-0.438,-0.4372,-0.4361,-0.4329,-0.4271,-0.4257,-0.4229,-0.4215,-0.4181,-0.4178,-0.4143,-0.4143,-0.4167,-0.4177,-0.4175,0,0,0,-0.4403,-0.4397,-0.4373,-0.4361,-0.433,-0.4288,-0.4257,-0.4225,-0.4199,-0.4179,-0.4143,-0.4143,-0.4167,-0.4176,-0.4174,-0.4178,-0.4181,0,0,-0.4409,-0.4399,-0.439,-0.4366,-0.4334,-0.4297,-0.427,-0.4224,-0.42,-0.4164,-0.4163,-0.4169,-0.4176,-0.4175,-0.4194,-0.4197,0,0,0,-0.44,-0.4393,-0.438,-0.4355,-0.4319,-0.4289,-0.4245,-0.4228,-0.4196,-0.4186,-0.4167,-0.4171,-0.4169,-0.417,-0.4172,-0.4169,-0.4144,-0.4144,-0.4144,-0.4442,-0.441,-0.4393,-0.4352,-0.4329,-0.4282,-0.4261,-0.423,-0.4206,-0.4202,-0.4191,-0.4206,-0.4208,-0.421,-0.4207,-0.419,-0.419,-0.419,-0.4191,-0.4448,-0.4434,-0.44,-0.4371,-0.4338,-0.4314,-0.4269,-0.4253,-0.4226,-0.4212,-0.4209,-0.4196,-0.4214,-0.421,-0.4192,-0.4192,-0.4192,-0.4192,-0.4191,-0.4472,-0.446,-0.4438,-0.4399,-0.4372,-0.4331,-0.4306,-0.4277,-0.425,-0.4246,-0.4232,-0.4231,-0.4227,-0.4241,-0.4241,-0.4241,-0.4242,-0.4242,-0.4242,-0.4506,-0.4481,-0.4463,-0.4423,-0.4403,-0.4373,-0.4327,-0.4306,-0.4277,-0.4258,-0.4257,-0.4234,-0.4221,-0.4219,-0.4242,-0.4242,-0.4242,-0.4242,-0.4242,-0.4524,-0.4515,-0.4488,-0.4467,-0.4418,-0.4394,-0.4356,-0.4318,-0.4297,-0.4286,-0.4262,-0.4258,-0.4246,-0.4243,-0.4241,-0.4269,-0.4269,-0.4269,-0.4269,-0.4545,-0.4535,-0.45,-0.447,-0.4437,-0.44,-0.437,-0.4334,-0.4295,-0.428,-0.4272,-0.4267,-0.4266,-0.4254,-0.4252,-0.4249,-0.4278,-0.4278,-0.4278,-0.4554,-0.454,-0.452,-0.448,-0.444,-0.4406,-0.4377,-0.4345,-0.4299,-0.4278,-0.4268,-0.4268,-0.4259,-0.4257,-0.4237,-0.4234,-0.4229,0,0]},{"header":{"parameterUnit":"m.s-1","parameterCategory":1,"la1":30.2992,"la2":30.254,"lo1":-89.0895,"lo2":-89.0443,"dy":0.0025,"dx":0.0025,"nx":19,"ny":19,"refTime":"2026-03-09T09:00:00:Z","depth":0,"parameterNumber":3,"parameterNumberName":"V-component_of_WINDS"},"data":[0,0,0,4.1137,4.1138,4.1184,4.1184,4.1248,4.1249,0,0,0,0,0,0,0,0,0,0,0,4.1128,4.1129,4.1137,4.1138,4.1184,4.1184,4.1248,4.1249,0,0,0,0,0,0,0,0,0,0,0,4.1128,4.1129,4.1129,4.1138,4.1184,4.1184,4.1248,4.1211,0,0,0,0,0,0,0,0,0,0,4.1165,4.1162,4.1128,4.1129,4.1139,4.1184,4.1184,4.1209,4.1213,4.123,0,4.1248,0,4.125,4.1253,4.1254,0,0,0,4.1134,4.1159,4.1167,4.1129,4.1139,4.1184,4.1162,4.1211,4.1216,4.1236,4.1249,4.1251,4.1251,4.1254,4.1254,4.137,4.1371,0,0,4.1131,4.1139,4.1164,4.117,4.1165,4.1161,4.1163,4.1214,4.1228,4.1249,4.1252,4.1252,4.1254,4.1255,4.1369,4.137,0,0,0,4.1127,4.1137,4.1144,4.1168,4.1176,4.1162,4.1165,4.1226,4.1227,4.1253,4.1252,4.1255,4.1256,4.1369,4.137,4.1415,0,0,0,4.1125,4.1134,4.1143,4.1148,4.1175,4.1202,4.1176,4.1224,4.1229,4.1252,4.1255,4.1256,4.1368,4.1369,4.1412,4.1435,0,0,0,4.1123,4.1134,4.1143,4.1148,4.1168,4.1201,4.1205,4.1225,4.1229,4.1254,4.1257,4.1367,4.1369,4.1409,4.143,4.1469,0,0,0,4.1123,4.118,4.1143,4.1207,4.1168,4.1228,4.1205,4.1249,4.1275,4.1255,4.1368,4.137,4.1408,4.1428,4.1466,4.1504,4.152,0,0,4.1199,4.1189,4.1226,4.1195,4.1264,4.1221,4.1296,4.1312,4.1306,4.1349,4.1352,4.1413,4.143,4.1468,4.1604,4.1617,0,0,0,4.1253,4.1279,4.1296,4.1322,4.1337,4.1352,4.1356,4.1362,4.1398,4.133,4.1436,4.1446,4.1468,4.1486,4.1497,4.1516,4.1378,4.1378,4.1377,4.1371,4.1362,4.1423,4.142,4.1446,4.145,4.147,4.1479,4.1461,4.1486,4.1499,4.1583,4.1604,4.1612,4.1632,4.1517,4.1517,4.1517,4.1517,4.1482,4.152,4.1496,4.1547,4.1537,4.1579,4.1585,4.1571,4.1608,4.1572,4.1591,4.1554,4.1626,4.1644,4.1521,4.152,4.152,4.1519,4.1519,4.156,4.1577,4.1584,4.1622,4.1652,4.1646,4.1683,4.1672,4.1662,4.168,4.1694,4.1693,4.1692,4.1687,4.1688,4.1688,4.1688,4.1688,4.1688,4.1639,4.1646,4.168,4.1701,4.1717,4.1736,4.1741,4.1756,4.1769,4.1758,4.1758,4.1739,4.1635,4.161,4.1693,4.1692,4.1692,4.1691,4.1691,4.1759,4.173,4.1783,4.1799,4.1823,4.1854,4.1839,4.187,4.1881,4.19,4.1876,4.18,4.1789,4.178,4.176,4.1877,4.1877,4.1877,4.1877,4.1826,4.182,4.1872,4.1898,4.1923,4.1915,4.1974,4.1978,4.1977,4.1983,4.1964,4.1935,4.1926,4.192,4.1909,4.1889,4.2037,4.2037,4.2037,4.19,4.1896,4.1949,4.1949,4.1967,4.1983,4.2038,4.2069,4.2062,4.2043,4.1988,4.1981,4.1934,4.1919,4.1901,4.1883,4.1847,0,0]}]]